Visibility
15.0 15.0 15.0 15.0 15.0 14.5 14.8 15.0 15.0 15.0 15.0 15.0 15.0 15.0 14.4 15.0 15.0 15.0 15.0 14.4 15.0 13.5 14.5 15.0 12.3 8.2 6.1 15.0 7.6 15.0 14.8 4.2 0.2 15.0 11.3 15.0 14.3 15.0 15.0 15.0 15.0 15.0 15.0
15.0 15.0 15.0 15.0 15.0 15.0 15.0 15.0 15.0 15.0 15.0 15.0 15.0 12.5 15.0 15.0 14.8 15.0 15.0 15.0 15.0 15.0 11.0 5.5 8.6 12.4 15.0 9.3 12.8 0.6 3.6 14.9 8.7 15.0 15.0 15.0 14.8 15.0 15.0 15.0 15.0 15.0 15.0
15.0 15.0 15.0 15.0 15.0 15.0 15.0 15.0 15.0 15.0 15.0 15.0 15.0 15.0 15.0 15.0 15.0 15.0 15.0 15.0 15.0 13.0 10.8 13.1 13.8 15.0 15.0 11.6 0.1 0.2 4.8 12.8 7.4 8.7 9.7 3.3 13.8 15.0 9.0 12.3 15.0 14.7 15.0
15.0 15.0 15.0 15.0 15.0 15.0 15.0 15.0 15.0 15.0 15.0 15.0 15.0 15.0 15.0 15.0 15.0 15.0 15.0 15.0 14.8 15.0 15.0 14.0 15.0 15.0 15.0 14.5 0.4 0.5 2.9 0.3 15.0 9.8 11.3 14.9 15.0 13.1 14.8 15.0 7.8 15.0 15.0
15.0 15.0 15.0 15.0 15.0 15.0 15.0 15.0 15.0 15.0 15.0 15.0 15.0 15.0 15.0 15.0 15.0 15.0 15.0 15.0 15.0 15.0 15.0 15.0 15.0 8.9 5.9 14.8 6.0 0.5 2.9 0.6 1.4 5.7 14.3 15.0 15.0 14.4 6.3 15.0 15.0 15.0 15.0
15.0 15.0 15.0 15.0 15.0 15.0 15.0 15.0 15.0 15.0 15.0 15.0 15.0 15.0 15.0 15.0 14.8 15.0 0.4 10.7 8.5 6.1 0.1 0.2 7.8 4.2 14.4 6.1 10.4 13.7 15.0 7.3 10.1 15.0 15.0 15.0 15.0 15.0 15.0 15.0 15.0 15.0 15.0
15.0 15.0 15.0 15.0 15.0 15.0 15.0 15.0 15.0 15.0 15.0 15.0 15.0 15.0 15.0 14.8 0.0 0.0 0.0 0.4 0.2 3.7 8.5 11.6 11.2 8.8 10.1 10.9 10.8 5.3 8.2 7.1 10.3 14.9 12.2 5.9 15.0 15.0 15.0 15.0 15.0 15.0 15.0
15.0 15.0 15.0 15.0 15.0 15.0 15.0 15.0 15.0 15.0 15.0 15.0 15.0 15.0 15.0 0.2 0.1 1.7 9.3 15.0 15.0 14.9 15.0 15.0 14.0 7.9 14.4 8.7 11.4 15.0 14.3 14.6 15.0 9.6 15.0 12.4 14.7 15.0 15.0 15.0 15.0 15.0 15.0
15.0 15.0 15.0 15.0 15.0 15.0 15.0 15.0 15.0 15.0 15.0 15.0 14.3 15.0 0.1 0.1 11.7 14.8 15.0 15.0 15.0 15.0 15.0 15.0 15.0 10.9 3.5 15.0 15.0 3.7 2.3 2.4 14.6 9.8 11.6 5.8 11.8 15.0 9.0 1.8 6.6 6.1 15.0
15.0 15.0 15.0 15.0 15.0 15.0 15.0 15.0 15.0 15.0 15.0 15.0 15.0 15.0 8.3 8.2 13.4 15.0 15.0 15.0 15.0 15.0 15.0 6.3 1.3 9.7 10.7 15.0 15.0 15.0 15.0 15.0 15.0 15.0 15.0 15.0 4.8 4.9 15.0 14.0 14.9 15.0 15.0
15.0 15.0 15.0 15.0 15.0 15.0 15.0 15.0 15.0 12.8 4.2 0.4 0.4 15.0 15.0 14.0 15.0 14.9 15.0 15.0 15.0 15.0 13.5 4.1 2.7 4.9 15.0 15.0 15.0 15.0 15.0 15.0 15.0 15.0 15.0 15.0 15.0 15.0 15.0 15.0 15.0 15.0 15.0
15.0 15.0 15.0 15.0 15.0 15.0 15.0 15.0 15.0 8.8 0.3 1.6 15.0 12.7 15.0 15.0 15.0 15.0 15.0 15.0 15.0 15.0 15.0 15.0 15.0 15.0 15.0 15.0 15.0 15.0 15.0 14.9 15.0 15.0 15.0 15.0 15.0 15.0 15.0 15.0 15.0 15.0 15.0
15.0 15.0 15.0 15.0 15.0 15.0 15.0 6.4 4.5 13.8 14.5 2.8 15.0 11.9 7.8 15.0 15.0 14.5 15.0 15.0 15.0 15.0 15.0 15.0 15.0 15.0 15.0 15.0 15.0 15.0 15.0 15.0 15.0 15.0 15.0 15.0 15.0 15.0 15.0 15.0 15.0 15.0 15.0
15.0 15.0 15.0 14.8 13.3 9.3 5.2 9.3 14.2 8.2 13.9 15.0 15.0 14.0 15.0 15.0 13.4 12.8 1.9 2.2 14.9 12.7 1.7 5.0 15.0 15.0 15.0 15.0 15.0 15.0 15.0 15.0 15.0 15.0 10.8 14.7 15.0 14.9 13.9 12.2 7.4 14.9 14.4
14.6 15.0 15.0 6.7 4.2 2.7 2.4 3.9 1.5 1.6 9.4 6.8 11.3 11.0 3.5 0.8 0.1 0.1 0.2 0.2 1.4 15.0 15.0 15.0 15.0 15.0 15.0 14.7 12.9 8.4 10.2 14.8 13.1 6.8 15.0 14.8 14.3 15.0 11.7 8.1 10.5 9.5 6.5
8.8 9.0 13.5 4.0 2.9 3.4 12.7 1.6 0.7 0.8 0.6 0.2 0.1 0.2 0.1 0.1 0.1 0.5 2.8 12.4 15.0 15.0 14.9 12.3 3.3 8.7 13.8 15.0 13.9 15.0 15.0 11.5 12.4 15.0 10.7 8.3 7.7 5.9 13.0 13.5 14.8 4.2 1.8
1.6 0.8 1.1 5.0 15.0 15.0 15.0 14.6 0.2 0.1 0.1 0.1 0.1 0.1 0.1 0.1 0.7 15.0 15.0 15.0 15.0 15.0 15.0 8.0 6.5 9.6 15.0 15.0 10.0 13.7 15.0 15.0 15.0 7.4 7.7 6.3 9.4 14.2 6.1 4.7 3.5 3.0 2.0
0.4 0.4 0.3 0.1 0.1 0.1 0.1 0.1 0.1 0.1 0.1 0.1 0.1 0.3 1.4 11.4 15.0 15.0 13.4 9.2 15.0 15.0 15.0 14.9 12.3 13.2 15.0 15.0 15.0 15.0 14.6 14.1 10.6 8.3 9.6 6.0 5.7 5.4 6.4 4.7 12.8 1.9 9.7
0.2 0.1 0.1 0.1 0.1 0.2 0.2 0.1 0.1 0.1 0.2 0.1 0.2 1.1 4.9 14.1 15.0 15.0 15.0 15.0 15.0 15.0 15.0 15.0 15.0 15.0 15.0 15.0 15.0 12.0 10.6 9.2 13.7 8.2 8.0 9.7 5.6 6.4 5.4 7.5 6.1 4.1 3.1
0.1 0.1 0.1 0.1 0.1 0.1 0.2 0.2 0.2 0.2 0.2 0.2 0.1 0.1 1.6 13.8 12.3 15.0 15.0 15.0 15.0 15.0 15.0 15.0 15.0 15.0 15.0 15.0 15.0 14.0 11.0 14.5 12.6 10.8 9.6 9.3 7.4 4.9 5.0 7.1 8.0 2.7 5.3
0.2 0.1 0.1 0.1 0.2 0.4 0.9 1.3 2.2 1.8 0.6 1.2 15.0 15.0 15.0 15.0 15.0 15.0 15.0 15.0 15.0 15.0 15.0 15.0 15.0 13.3 15.0 15.0 15.0 11.2 10.1 10.0 10.3 11.0 9.2 7.7 7.0 7.9 8.0 5.9 12.1 4.8 12.1
0.6 0.4 0.5 0.5 0.5 0.4 0.9 7.1 15.0 15.0 15.0 15.0 15.0 15.0 15.0 15.0 15.0 15.0 15.0 13.9 11.8 15.0 15.0 15.0 14.3 14.2 15.0 12.2 10.6 8.4 11.9 11.0 10.0 9.0 8.6 10.4 9.4 9.2 7.0 4.8 3.1 2.1 2.8
10.4 12.2 15.0 15.0 15.0 15.0 15.0 15.0 15.0 15.0 15.0 15.0 15.0 15.0 15.0 14.5 15.0 15.0 15.0 13.9 15.0 15.0 14.2 15.0 11.9 14.2 14.3 13.7 13.7 11.5 9.2 10.6 10.7 10.7 3.4 3.1 5.8 7.0 3.4 2.1 2.2 1.1 2.0
15.0 15.0 15.0 15.0 15.0 15.0 15.0 15.0 15.0 15.0 15.0 14.3 13.2 15.0 15.0 15.0 14.8 15.0 14.8 14.4 15.0 13.3 11.7 12.7 14.4 15.0 15.0 15.0 15.0 14.6 15.0 15.0 14.8 8.6 3.0 1.2 1.9 10.6 3.8 3.4 4.1 3.5 1.9
15.0 15.0 15.0 15.0 15.0 15.0 15.0 15.0 15.0 15.0 15.0 15.0 15.0 14.8 15.0 15.0 15.0 11.0 10.6 14.2 15.0 15.0 15.0 15.0 13.8 15.0 15.0 15.0 15.0 15.0 14.8 13.5 11.2 9.3 3.2 1.6 1.2 1.6 1.6 1.8 1.6 1.7 2.0
15.0 15.0 15.0 15.0 15.0 15.0 14.7 15.0 15.0 15.0 15.0 15.0 12.6 11.9 11.9 14.8 12.7 11.4 13.1 15.0 15.0 15.0 15.0 15.0 15.0 15.0 15.0 15.0 15.0 15.0 15.0 15.0 9.5 7.3 2.3 1.2 0.8 1.6 2.0 1.2 2.1 0.7 1.2